Date String (YYYY-MM-DD hh:mm:ss) UTC,Instrument flags,Ambient pressure (hPa),Sample flow (lpm),Bypass flow (lpm),Sample temperature (°C),Ambient temperature (°C),ASC tube jacket temperature (°C),LED temperature (°C),Box temperature (°C),Sample RH (%),Span deviation,Mass concentration (μg/m³),Mass concentration (μg/m³),Mass concentration (μg/m³)
DateTimeUTC,F1_M11,P_M11,Q1_M11,Q2_M11,T1_M11,T2_M11,T3_M11,T4_M11,T5_M11,U1_M11,ZSPAN_M11,X0_M11,X2_M11,X1_M11
2022-06-21 02:00:00,,0825.4,4.99,0.00,29.2,27.7,00.0,38.0,31.1,05.4,0000.0,0011.52,0003.63,0001.62
2022-06-21 02:01:00,,0825.4,4.98,0.00,29.2,27.9,00.0,38.0,31.1,05.4,0000.0,0011.57,0003.61,0001.61
2022-06-21 02:02:00,,0825.5,5.01,0.00,29.2,28.0,00.0,38.0,31.2,05.3,0000.0,0011.67,0003.60,0001.60
2022-06-21 02:03:00,,0825.6,5.01,0.00,29.2,28.1,00.0,38.0,31.2,05.3,0000.0,0011.81,0003.56,0001.59
2022-06-21 02:04:00,,0825.5,4.99,0.00,29.3,28.3,00.0,38.0,31.2,05.4,0000.0,0011.41,0003.49,0001.58
2022-06-21 02:05:00,,0825.6,5.01,0.00,29.3,28.4,00.0,38.0,31.3,05.3,0000.0,0011.26,0003.54,0001.57
2022-06-21 02:06:00,,0825.6,4.99,0.00,29.3,28.5,00.0,38.1,31.3,05.3,0000.0,0011.19,0003.55,0001.58
2022-06-21 02:07:00,,0825.7,5.02,0.00,29.4,28.5,00.0,38.1,31.4,05.3,0000.0,0011.40,0003.50,0001.60
2022-06-21 02:08:00,,0825.7,4.99,0.00,29.4,28.6,00.0,38.1,31.4,05.3,0000.0,0011.41,0003.56,0001.61
2022-06-21 02:09:00,,0825.6,5.00,0.00,29.5,28.7,00.0,38.1,31.4,05.2,0000.0,0011.04,0003.62,0001.63
2022-06-21 02:10:00,,0825.5,5.01,0.00,29.5,28.4,00.0,38.1,31.4,05.1,0000.0,0010.39,0003.64,0001.64
2022-06-21 02:11:00,,0825.7,4.98,0.00,29.4,27.6,00.0,38.1,31.2,05.1,0000.0,0010.74,0003.64,0001.65
2022-06-21 02:12:00,,0825.6,5.01,0.00,29.4,27.4,00.0,38.1,31.1,05.1,0000.0,0010.63,0003.61,0001.66
2022-06-21 02:13:00,,0825.7,5.01,0.00,29.3,27.4,00.0,38.1,31.1,05.1,0000.0,0010.56,0003.60,0001.66
2022-06-21 02:14:00,,0825.6,4.99,0.00,29.3,27.5,00.0,38.1,31.1,05.2,0000.0,0010.47,0003.63,0001.65
2022-06-21 02:15:00,,0825.7,5.00,0.00,29.3,27.6,00.0,38.1,31.1,05.2,0000.0,0010.62,0003.70,0001.68
2022-06-21 02:16:00,,0825.7,5.00,0.00,29.3,27.8,00.0,38.1,31.2,05.1,0000.0,0010.71,0003.68,0001.69
2022-06-21 02:17:00,,0825.7,5.00,0.00,29.3,27.9,00.0,38.1,31.2,05.1,0000.0,0010.85,0003.65,0001.71
2022-06-21 02:18:00,,0825.7,5.00,0.00,29.3,28.0,00.0,38.1,31.2,05.1,0000.0,0010.21,0003.63,0001.72
2022-06-21 02:19:00,,0825.6,5.01,0.00,29.4,28.2,00.0,38.1,31.3,05.1,0000.0,0009.98,0003.57,0001.71
2022-06-21 02:20:00,,0825.7,5.01,0.00,29.4,28.3,00.0,38.1,31.3,05.1,0000.0,0009.83,0003.49,0001.70
2022-06-21 02:21:00,,0825.7,4.99,0.00,29.4,28.4,00.0,38.1,31.3,05.1,0000.0,0009.82,0003.42,0001.69
2022-06-21 02:22:00,,0825.8,5.01,0.00,29.4,28.5,00.0,38.2,31.4,05.1,0000.0,0010.40,0003.40,0001.70
2022-06-21 02:23:00,,0825.9,5.00,0.00,29.5,28.5,00.0,38.2,31.4,05.1,0000.0,0011.04,0003.44,0001.70
2022-06-21 02:24:00,,0825.9,5.00,0.00,29.5,28.6,00.0,38.2,31.5,05.2,0000.0,0011.21,0003.44,0001.69
2022-06-21 02:25:00,,0825.9,5.00,0.00,29.5,28.6,00.0,38.2,31.5,05.2,0000.0,0011.27,0003.47,0001.69
2022-06-21 02:26:00,,0825.9,5.00,0.00,29.5,27.9,00.0,38.2,31.3,05.1,0000.0,0011.13,0003.43,0001.66
2022-06-21 02:27:00,,0825.7,4.99,0.00,29.4,27.4,00.0,38.1,31.2,05.1,0000.0,0011.03,0003.40,0001.65
2022-06-21 02:28:00,,0825.9,5.00,0.00,29.4,27.3,00.0,38.1,31.1,05.2,0000.0,0010.72,0003.36,0001.63
2022-06-21 02:29:00,,0826.1,5.01,0.00,29.3,27.4,00.0,38.1,31.1,05.1,0000.0,0010.84,0003.35,0001.61
2022-06-21 02:30:00,,0826.2,5.01,0.00,29.3,27.5,00.0,38.1,31.1,05.1,0000.0,0010.78,0003.38,0001.61
2022-06-21 02:31:00,,0826.2,4.99,0.00,29.3,27.7,00.0,38.1,31.2,05.2,0000.0,0010.95,0003.44,0001.64
2022-06-21 02:32:00,,0826.0,4.99,0.00,29.3,27.8,00.0,38.1,31.2,05.2,0000.0,0011.21,0003.51,0001.65
2022-06-21 02:33:00,,0826.1,4.99,0.00,29.4,28.0,00.0,38.1,31.2,05.3,0000.0,0009.93,0003.49,0001.65
2022-06-21 02:34:00,,0826.2,5.01,0.00,29.4,28.1,00.0,38.1,31.3,05.3,0000.0,0009.46,0003.53,0001.66
2022-06-21 02:35:00,,0826.1,5.00,0.00,29.4,28.2,00.0,38.2,31.3,05.3,0000.0,0009.48,0003.56,0001.67
2022-06-21 02:36:00,,0826.0,4.99,0.00,29.4,28.3,00.0,38.2,31.4,05.2,0000.0,0009.68,0003.55,0001.69
2022-06-21 02:37:00,,0825.8,5.01,0.00,29.4,28.4,00.0,38.2,31.4,05.2,0000.0,0009.97,0003.55,0001.70
2022-06-21 02:38:00,,0825.8,5.01,0.00,29.5,28.5,00.0,38.2,31.4,05.2,0000.0,0010.08,0003.57,0001.71
2022-06-21 02:39:00,,0825.9,4.99,0.00,29.5,28.5,00.0,38.2,31.4,05.2,0000.0,0010.15,0003.63,0001.74
2022-06-21 02:40:00,,0826.1,5.01,0.00,29.5,28.6,00.0,38.2,31.5,05.1,0000.0,0010.07,0003.65,0001.75
2022-06-21 02:41:00,,0826.2,5.00,0.00,29.6,28.6,00.0,38.3,31.5,05.2,0000.0,0010.04,0003.61,0001.76
2022-06-21 02:42:00,,0826.1,4.99,0.00,29.5,27.9,00.0,38.2,31.3,05.2,0000.0,0009.90,0003.60,0001.75
2022-06-21 02:43:00,,0826.1,5.01,0.00,29.5,27.4,00.0,38.2,31.2,05.2,0000.0,0009.75,0003.58,0001.76
2022-06-21 02:44:00,,0826.0,5.00,0.00,29.4,27.3,00.0,38.2,31.1,05.2,0000.0,0009.67,0003.57,0001.77
2022-06-21 02:45:00,,0826.1,5.00,0.00,29.4,27.4,00.0,38.1,31.1,05.3,0000.0,0009.36,0003.49,0001.75
2022-06-21 02:46:00,,0826.1,4.99,0.00,29.3,27.5,00.0,38.1,31.1,05.3,0000.0,0009.65,0003.49,0001.75
2022-06-21 02:47:00,,0826.2,5.00,0.00,29.3,27.6,00.0,38.1,31.2,05.3,0000.0,0009.80,0003.49,0001.76
2022-06-21 02:48:00,,0826.4,5.00,0.00,29.3,27.8,00.0,38.1,31.2,05.3,0000.0,0010.25,0003.51,0001.77
2022-06-21 02:49:00,,0826.4,4.99,0.00,29.4,27.9,00.0,38.1,31.2,05.3,0000.0,0011.16,0003.55,0001.77
2022-06-21 02:50:00,,0826.4,5.01,0.00,29.4,28.0,00.0,38.2,31.3,05.3,0000.0,0011.22,0003.56,0001.75
2022-06-21 02:51:00,,0826.3,5.01,0.00,29.4,28.1,00.0,38.2,31.3,05.3,0000.0,0011.32,0003.53,0001.73
2022-06-21 02:52:00,,0826.3,4.98,0.00,29.4,28.2,00.0,38.2,31.3,05.3,0000.0,0011.60,0003.52,0001.70
2022-06-21 02:53:00,,0826.2,5.00,0.00,29.4,28.3,00.0,38.2,31.4,05.3,0000.0,0011.57,0003.51,0001.71
2022-06-21 02:54:00,,0826.2,5.00,0.00,29.5,28.4,00.0,38.2,31.4,05.3,0000.0,0011.24,0003.48,0001.70
2022-06-21 02:55:00,,0826.2,4.98,0.00,29.5,28.5,00.0,38.2,31.4,05.3,0000.0,0011.20,0003.50,0001.70
2022-06-21 02:56:00,,0826.1,5.01,0.00,29.5,28.6,00.0,38.2,31.5,05.3,0000.0,0011.23,0003.52,0001.71
2022-06-21 02:57:00,,0826.2,5.01,0.00,29.5,28.6,00.0,38.3,31.5,05.2,0000.0,0011.11,0003.55,0001.72
2022-06-21 02:58:00,,0826.2,4.99,0.00,29.6,28.7,00.0,38.3,31.5,05.2,0000.0,0010.83,0003.56,0001.72
2022-06-21 02:59:00,,0826.2,5.00,0.00,29.6,28.4,00.0,38.3,31.5,05.2,0000.0,0010.33,0003.51,0001.72
